When you browse on this site, cookies collect data to enhance your experience and personalize the content and advertising you see.
Visit our Privacy Policy to learn more. By continuing to use the site, you agree to this use of cookies and data.
  • In Deutschland
  • Länderverzeichnis
  • Für 7 Tage
  • Wassertemperatur
  • Satellitenkarten
  • Wetterkarte
  • Widgets
  • user-avatar
    Anmelden

    Stündliche Wetter Cavalcante

    Heute, 16 Dezember, Sonntag

    Zeit Temperatur Niederschläge Wind Luftdruck Luftfeuchtigkeit
    00:00 +21°C° 0 mm 2 m/S 693 mmHg 78%
    01:00 +21°C° 0 mm 2 m/S 692 mmHg 80%
    02:00 +21°C° 0 mm 2 m/S 692 mmHg 81%
    03:00 +21°C° 0 mm 2 m/S 692 mmHg 83%
    04:00 +20°C° 0 mm 2 m/S 692 mmHg 84%
    05:00 +20°C° 0 mm 2 m/S 693 mmHg 86%
    06:00 +20°C° 0 mm 2 m/S 693 mmHg 87%
    07:00 +22°C° 0 mm 3 m/S 693 mmHg 80%
    08:00 +25°C° 0 mm 3 m/S 694 mmHg 73%
    09:00 +27°C° 0 mm 4 m/S 695 mmHg 66%
    10:00 +28°C° 0 mm 4 m/S 695 mmHg 60%
    11:00 +29°C° 0 mm 4 m/S 695 mmHg 54%
    12:00 +32°C° 0 mm 4 m/S 695 mmHg 48%
    13:00 +31°C° 0 mm 3 m/S 694 mmHg 48%
    14:00 +31°C° 0 mm 3 m/S 693 mmHg 47%
    15:00 +31°C° 0 mm 3 m/S 693 mmHg 47%
    16:00 +30°C° 0 mm 3 m/S 692 mmHg 54%
    17:00 +29°C° 0 mm 2 m/S 692 mmHg 61%
    18:00 +27°C° 0 mm 2 m/S 691 mmHg 68%
    19:00 +26°C° 0 mm 2 m/S 692 mmHg 71%
    20:00 +25°C° 0 mm 2 m/S 692 mmHg 74%
    21:00 +24°C° 0 mm 2 m/S 692 mmHg 77%
    22:00 +23°C° 0 mm 2 m/S 692 mmHg 79%
    23:00 +23°C° 0 mm 2 m/S 692 mmHg 81%

    Morgen, 17 Dezember, Montag

    Zeit Temperatur Niederschläge Wind Luftdruck Luftfeuchtigkeit
    00:00 +21°C° 0 mm 2 m/S 692 mmHg 83%
    01:00 +21°C° 0 mm 2 m/S 692 mmHg 83%
    02:00 +20°C° 0 mm 2 m/S 691 mmHg 83%
    03:00 +20°C° 0 mm 2 m/S 691 mmHg 83%
    04:00 +20°C° 0 mm 2 m/S 691 mmHg 82%
    05:00 +19°C° 0 mm 2 m/S 691 mmHg 81%
    06:00 +19°C° 0 mm 2 m/S 691 mmHg 81%
    07:00 +21°C° 0 mm 3 m/S 692 mmHg 76%
    08:00 +24°C° 0 mm 3 m/S 693 mmHg 71%
    09:00 +26°C° 0 mm 4 m/S 694 mmHg 66%
    10:00 +28°C° 0 mm 4 m/S 694 mmHg 61%
    11:00 +29°C° 0 mm 3 m/S 694 mmHg 57%
    12:00 +30°C° 0 mm 3 m/S 694 mmHg 52%
    13:00 +30°C° 0.1 mm 3 m/S 693 mmHg 51%
    14:00 +31°C° 0.1 mm 3 m/S 692 mmHg 50%
    15:00 +31°C° 0.1 mm 3 m/S 692 mmHg 49%
    16:00 +30°C° 0.1 mm 2 m/S 691 mmHg 56%
    17:00 +28°C° 0.1 mm 2 m/S 691 mmHg 62%
    18:00 +27°C° 0.1 mm 2 m/S 691 mmHg 69%
    19:00 +26°C° 0 mm 2 m/S 691 mmHg 71%
    20:00 +25°C° 0 mm 1 m/S 691 mmHg 73%
    21:00 +23°C° 0 mm 1 m/S 691 mmHg 75%
    22:00 +23°C° 0 mm 2 m/S 692 mmHg 76%
    23:00 +23°C° 0 mm 2 m/S 692 mmHg 77%

    übermorgen, 18 Dezember, Dienstag

    Zeit Temperatur Niederschläge Wind Luftdruck Luftfeuchtigkeit
    00:00 +21°C° 0 mm 2 m/S 692 mmHg 78%
    01:00 +21°C° 0 mm 2 m/S 692 mmHg 81%
    02:00 +21°C° 0 mm 2 m/S 691 mmHg 83%
    03:00 +20°C° 0 mm 2 m/S 691 mmHg 85%
    04:00 +20°C° 0 mm 2 m/S 691 mmHg 84%
    05:00 +20°C° 0 mm 2 m/S 691 mmHg 83%
    06:00 +19°C° 0 mm 2 m/S 692 mmHg 82%
    07:00 +21°C° 0 mm 2 m/S 692 mmHg 74%
    08:00 +24°C° 0 mm 3 m/S 693 mmHg 66%
    09:00 +26°C° 0 mm 3 m/S 694 mmHg 57%
    10:00 +28°C° 0 mm 3 m/S 694 mmHg 54%
    11:00 +29°C° 0 mm 3 m/S 694 mmHg 50%
    12:00 +30°C° 0 mm 2 m/S 694 mmHg 46%
    13:00 +30°C° 0 mm 2 m/S 693 mmHg 45%
    14:00 +31°C° 0 mm 2 m/S 693 mmHg 44%
    15:00 +31°C° 0 mm 2 m/S 692 mmHg 43%
    16:00 +30°C° 0 mm 2 m/S 691 mmHg 50%
    17:00 +28°C° 0 mm 2 m/S 691 mmHg 57%
    18:00 +27°C° 0 mm 2 m/S 691 mmHg 63%
    19:00 +26°C° 0 mm 2 m/S 691 mmHg 64%
    20:00 +24°C° 0 mm 1 m/S 691 mmHg 64%
    21:00 +23°C° 0 mm 1 m/S 692 mmHg 65%
    22:00 +23°C° 0 mm 1 m/S 692 mmHg 62%
    23:00 +23°C° 0 mm 1 m/S 692 mmHg 60%

    19 Dezember, Mittwoch

    Zeit Temperatur Niederschläge Wind Luftdruck Luftfeuchtigkeit
    00:00 +21°C° 0 mm 2 m/S 692 mmHg 58%
    01:00 +21°C° 0 mm 2 m/S 691 mmHg 60%
    02:00 +21°C° 0 mm 2 m/S 691 mmHg 62%
    03:00 +20°C° 0 mm 2 m/S 690 mmHg 64%
    04:00 +20°C° 0 mm 2 m/S 691 mmHg 67%
    05:00 +20°C° 0 mm 2 m/S 691 mmHg 70%
    06:00 +20°C° 0 mm 2 m/S 691 mmHg 74%
    07:00 +23°C° 0 mm 2 m/S 692 mmHg 68%
    08:00 +25°C° 0 mm 2 m/S 692 mmHg 63%
    09:00 +28°C° 0 mm 2 m/S 693 mmHg 57%
    10:00 +29°C° 0 mm 2 m/S 693 mmHg 52%
    11:00 +30°C° 0 mm 2 m/S 693 mmHg 47%
    12:00 +32°C° 0 mm 1 m/S 693 mmHg 42%
    13:00 +32°C° 0 mm 1 m/S 692 mmHg 41%
    14:00 +32°C° 0 mm 1 m/S 691 mmHg 40%
    15:00 +33°C° 0 mm 1 m/S 690 mmHg 39%
    16:00 +31°C° 0 mm 1 m/S 690 mmHg 46%
    17:00 +30°C° 0 mm 1 m/S 690 mmHg 53%
    18:00 +28°C° 0 mm 1 m/S 689 mmHg 59%
    19:00 +27°C° 0 mm 1 m/S 690 mmHg 60%
    20:00 +26°C° 0 mm 1 m/S 690 mmHg 61%
    21:00 +24°C° 0 mm 1 m/S 690 mmHg 62%
    22:00 +24°C° 0 mm 1 m/S 690 mmHg 62%
    23:00 +23°C° 0 mm 1 m/S 690 mmHg 61%

    20 Dezember, Donnerstag

    Zeit Temperatur Niederschläge Wind Luftdruck Luftfeuchtigkeit
    00:00 +23°C° 0 mm 1 m/S 690 mmHg 61%
    01:00 +23°C° 0 mm 1 m/S 690 mmHg 63%
    02:00 +22°C° 0 mm 1 m/S 690 mmHg 66%
    03:00 +22°C° 0 mm 1 m/S 689 mmHg 68%
    04:00 +22°C° 0 mm 1 m/S 690 mmHg 72%
    05:00 +21°C° 0 mm 1 m/S 690 mmHg 76%
    06:00 +21°C° 0 mm 1 m/S 690 mmHg 80%
    07:00 +24°C° 0 mm 1 m/S 691 mmHg 73%
    08:00 +26°C° 0 mm 1 m/S 692 mmHg 66%
    09:00 +29°C° 0 mm 2 m/S 693 mmHg 59%
    10:00 +30°C° 0.1 mm 2 m/S 692 mmHg 55%
    11:00 +31°C° 0.1 mm 2 m/S 692 mmHg 51%
    12:00 +32°C° 0.1 mm 2 m/S 692 mmHg 48%
    13:00 +32°C° 0.8 mm 2 m/S 691 mmHg 48%
    14:00 +32°C° 0.8 mm 2 m/S 691 mmHg 49%
    15:00 +32°C° 0.8 mm 2 m/S 690 mmHg 50%
    16:00 +31°C° 0.7 mm 1 m/S 690 mmHg 55%
    17:00 +29°C° 0.7 mm 1 m/S 690 mmHg 60%
    18:00 +28°C° 0.7 mm 1 m/S 690 mmHg 66%
    19:00 +27°C° 0 mm 1 m/S 690 mmHg 67%
    20:00 +26°C° 0 mm 1 m/S 690 mmHg 69%
    21:00 +25°C° 0 mm 1 m/S 690 mmHg 70%
    22:00 +24°C° 0.2 mm 1 m/S 690 mmHg 71%
    23:00 +24°C° 0.2 mm 1 m/S 690 mmHg 72%

    21 Dezember, Freitag

    Zeit Temperatur Niederschläge Wind Luftdruck Luftfeuchtigkeit
    00:00 +24°C° 0.2 mm 1 m/S 690 mmHg 73%
    01:00 +23°C° 0.4 mm 1 m/S 689 mmHg 76%
    02:00 +22°C° 0.4 mm 1 m/S 689 mmHg 79%
    03:00 +22°C° 0.4 mm 1 m/S 689 mmHg 83%
    04:00 +22°C° 0.3 mm 1 m/S 689 mmHg 84%
    05:00 +22°C° 0.3 mm 1 m/S 689 mmHg 84%
    06:00 +22°C° 0.3 mm 1 m/S 690 mmHg 85%
    07:00 +24°C° 0.4 mm 1 m/S 690 mmHg 76%
    08:00 +27°C° 0.4 mm 1 m/S 691 mmHg 68%
    09:00 +29°C° 0.4 mm 1 m/S 692 mmHg 59%
    10:00 +30°C° 0.3 mm 1 m/S 692 mmHg 54%
    11:00 +31°C° 0.3 mm 2 m/S 692 mmHg 49%
    12:00 +34°C° 0.3 mm 2 m/S 691 mmHg 44%
    13:00 +33°C° 0.4 mm 1 m/S 691 mmHg 44%
    14:00 +33°C° 0.4 mm 1 m/S 690 mmHg 43%
    15:00 +33°C° 0.4 mm 1 m/S 690 mmHg 42%
    16:00 +32°C° 0.6 mm 1 m/S 690 mmHg 48%
    17:00 +30°C° 0.6 mm 1 m/S 689 mmHg 55%
    18:00 +29°C° 0.6 mm 1 m/S 689 mmHg 62%
    19:00 +28°C° 0.2 mm 1 m/S 689 mmHg 63%
    20:00 +26°C° 0.2 mm 1 m/S 689 mmHg 65%
    21:00 +25°C° 0.2 mm 1 m/S 689 mmHg 67%
    22:00 +25°C° 0 mm 1 m/S 689 mmHg 67%
    23:00 +24°C° 0 mm 1 m/S 689 mmHg 67%
    Mehr zeigen